EHI
0 0 0 0 0 0 0 0 0 0 0 0 0 0 0 0 0 0 0 0 0 0 0 0 0 0 0 0 0 0 0 0 0 0 0 0 0 0 0 0 0 0 0 0
0 0 0 0 0 0 0 0 0 0 0 0 0 0 0 0 0 0 0 0 0 0 0 0 0 0 0 0 0 0 0 0 0 0 0 0 0 0 0 0 0 0 0 0
0 0 0 0 0 0 0 0 0 0 0 0 0 0 0 0 0 0 0 0 0 0 0 0 0 0 0 0 0 0 0 0 0 0 0 0 0 0 0 0 0 0 0 0
0 0 0 0 0 0 0 0 0 0 0 0 0 0 0 0 0 0 0 0 0 0 0 0 0 0 0 0 0 0 0 0 0 0 0 0 0 0 0 0 0 0 0 0
0 0 0 0 0 0 0 0 0 0 0 0 0 0 0 0 0 0 0 0 0 0 0 0 0 0 0 0 0 0 0 0 0 0 0 0 0 0 0 0 0 0 0 0
0 0 0 0 0 0 0 0 0 0 0 0 0 0 0 0 0 0 0 0 0 0 0 0 0 0 0 0 0 0 0 0 0 0 0 0 0 0 0 0 0 0 0 0
0 0 0 0 0 0 0 0 0 0 0 0 0 0 0 0 0 0 0 0 0 0 0 0 0 0 0 0 0 0 0 0 0 0 0 0 0 0 0 0 0 0 0 0
0 0 0 0 0 0 0 0 0 0 0 0 0 0 0 0 0 0 0 0 0 0 0 0 0 0 0 0 0 0 0 0 0 0 0 0 0 0 0 0 0 0 0 0
0 0 0 0 0 0 0 0 0 0 0 0 0 0 0 0 0 0 0 0 0 0 0 0 0 0 0 0 0 0 0 0 0 0 0 0 0 0 0 0 0 0 0 0
0 0 0 0 0 0 0 0 0 0 0 0 0 0 0 0 0 0 0 0 0 0 0 0 0 0 0 0 0 0 0 0 0 0 0 0 0 0 0 0 0 0 0 0
0 0 0 0 0 0 0 0 0 0 0 0 0 0 0 0 0 0 0 0 0 0 0 0 0 0 0 0 0 0 0 0 0 0 0 0 0 0 0 0 0 0 0 0
0 0 0 0 0 0 0 0 0 0 0 0 0 0 0 0 0 0 0 0 0 0 0 0 0 0 0 0 0 0 0 0 0 0 0 0 0 0 0 0 0 0 0 0
0 0 0 0 0 0 0 0 0 0 0 0 0 0 0 0 0 0 0 0 0 0 0 0 0 0 0 0 0 0 0 0 0 0 0 0 0 0 0 0 0 0 0 0
0 0 0 0 0 0 0 0 0 0 0 0 0 0 0 0 0 0 0 0 0 0 0 0 0 0 0 0 0 0 0 0 0 0 0 0 0 0 0 0 0 0 0 0
0 0 0 0 0 0 0 0 0 0 0 0 0 0 0 0 0 0 0 0 0 0 0 0 0 0 0 0 0 0 0 0 0 0 0 0 0 0 0 0 0 0 0 0
0 0 0 0 0 0 0 0 0 0 0 0 0 0 0 0 0 0 0 0 0 0 0 0 0 0 0 0 0 0 0 0 0 0 0 0 0 0 0 0 0 0 0 0
0 0 0 0 0 0 0 0 0 0 0 0 0 0 0 0 0 0 0 0 0 0 0 0 0 0 0 0 0 0 0 0 0 0 0 0 0 0 0 0 0 0 0 0
0 0 0 0 0 0 0 0 0 0 0 0 0 0 0 0 0 0 0 0 0 0 0 0 0 0 0 0 0 0 0 0 0 0 0 0 0 0 0 0 0 0 0 0
0 0 0 0 0 0 0 0 0 0 0 0 0 0 0 0 0 0 0 0 0 0 0 0 0 0 0 0 0 0 0 0 0 0 0 0 0 0 0 0 0 0 0 0
0 0 0 0 0 0 0 0 0 0 0 0 0 0 0 0 0 0 0 0 0 0 0 0 0 0 0 0 0 0 0 0 0 0 0 0 0 0 0 0 0 0 0 0
0 0 0 0 0 0 0 0 0 0 0 0 0 0 0 0 0 0 0 0 0 0 0 0 0 0 0 0 0 0 0 0 0 0 0 0 0 0 0 0 0 0 0 0
0 0 0 0 0 0 0 0 0 0 0 0 0 0 0 0 0 0 0 0 0 0 0 0 0 0 0 0 0 0 0 0 0 0 0 0 0 0 0 0 0 0 0 0
0 0 0 0 0 0 0 0 0 0 0 0 0 0 0 0 0 0 0 0 0 0 0 0 0 0 0 0 0 0 0 0 0 0 0 0 0 0 0 0 0 0 0 0
0 0 0 0 0 0 0 0 0 0 0 0 0 0 0 0 0 0 0 0 0 0 0 0 0 0 0 0 0 0 0 0 0 0 0 0 0 0 0 0 0 0 0 0
0 0 0 0 0 0 0 0 0 0 0 0 0 0 0 0 0 0 0 0 0 0 0 0 0 0 0 0 0 0 0 0 0 0 0 0 0 0 0 0 0 0 0 0
0 0 0 0 0 0 0 0 0 0 0 0 0 0 0 0 0 0 0 0 0 0 0 0 0 0 0 0 0 0 0 0 0 0 0 0 0 0 0 0 0 0 0 0
Wind_Speed
2 3 5 8 8 5 3 3 5 6 3 2 7 10 10 7 4 5 4 4 5 5 4 3 3 3 3 3 3 3 3 3 2 2 2 1 1 1 1 1 1 2 2 2
2 5 8 4 3 3 4 4 5 5 2 3 5 9 8 5 4 5 5 5 5 4 2 2 2 2 3 3 3 3 3 3 3 3 2 2 1 1 1 1 1 2 2 2
7 5 3 3 3 4 5 6 5 4 4 2 3 8 4 3 2 2 3 4 4 5 4 3 3 3 3 3 4 3 3 3 3 3 2 1 1 1 0 1 1 2 2 2
5 3 2 3 5 5 7 4 4 3 1 4 1 5 6 3 3 3 3 3 4 3 4 3 3 3 3 3 3 3 3 3 2 3 3 3 2 2 3 2 2 2 2 2
5 3 4 5 6 6 5 2 3 3 3 3 2 3 8 2 4 5 5 4 4 4 3 3 3 4 3 2 2 2 2 2 2 2 3 4 3 2 1 1 2 2 2 2
4 2 4 4 2 3 1 2 2 2 2 4 5 5 8 4 5 4 3 3 3 2 2 1 1 1 1 1 1 1 1 1 1 2 2 3 3 3 2 2 2 2 1 2
3 3 2 2 2 1 2 4 3 4 2 6 2 4 9 6 4 5 5 4 2 1 1 0 0 0 0 0 0 0 1 1 1 1 2 3 3 4 4 3 3 2 2 2
4 5 4 3 5 5 5 6 6 5 5 5 2 6 7 4 2 1 2 2 1 0 0 0 1 1 1 1 0 0 1 1 1 1 2 1 2 2 2 2 2 3 3 3
6 5 1 2 2 5 4 4 3 3 0 2 5 5 6 2 1 1 1 1 1 1 1 1 0 0 0 0 0 1 1 1 1 1 1 1 1 1 2 1 1 2 2 2
4 3 2 1 1 1 2 4 4 4 4 4 6 5 5 5 5 3 2 2 1 1 1 1 1 1 1 1 1 1 0 0 1 1 1 1 1 1 1 1 2 2 2 1
2 3 2 1 5 6 3 3 4 3 4 5 5 7 5 6 5 4 3 2 1 1 1 1 1 2 1 1 1 1 1 1 1 1 1 1 1 1 1 1 2 2 2 2
3 4 3 6 4 3 4 6 6 5 5 5 4 8 2 3 3 3 3 1 1 1 1 1 2 2 2 2 1 1 2 1 2 1 1 1 1 1 1 1 2 1 2 2
4 4 1 3 2 2 3 4 5 3 3 4 6 8 1 2 1 1 2 1 1 1 2 2 2 2 2 2 2 1 2 2 2 2 1 1 1 1 1 2 2 2 2 2
3 4 7 9 6 5 5 5 5 5 5 6 10 9 5 4 3 2 1 1 1 1 1 2 2 2 3 2 2 2 2 2 2 2 1 2 2 2 2 2 2 2 2 2
4 5 5 6 4 3 6 8 9 10 10 10 10 9 10 7 5 4 2 1 1 1 1 1 2 2 3 3 3 3 3 3 2 2 2 2 2 2 2 2 2 2 2 2
3 4 2 5 4 5 8 11 12 12 11 11 10 12 7 3 2 2 2 2 1 1 1 2 2 3 3 3 3 3 3 3 2 2 2 3 2 2 2 2 2 2 2 2
4 4 3 5 2 2 10 12 13 9 8 9 13 11 3 2 4 4 4 3 2 2 2 2 2 2 3 3 3 3 3 3 2 2 3 3 2 2 2 2 2 2 2 2
6 5 3 2 1 10 9 2 7 8 7 8 7 5 5 5 3 2 2 2 2 2 2 2 2 2 2 3 3 3 3 2 2 2 3 3 3 3 3 2 2 2 2 2
7 7 4 4 5 9 7 3 5 6 7 6 7 5 3 3 2 2 1 1 2 2 2 2 2 2 2 3 3 3 3 3 2 3 3 4 3 3 3 3 3 2 2 3
4 5 5 4 5 9 6 2 2 3 6 3 5 5 5 4 3 4 2 1 0 1 1 1 2 2 2 3 3 2 3 3 4 4 4 4 3 3 3 3 3 3 2 3
5 5 8 7 7 9 6 2 3 5 6 1 3 3 4 4 3 2 1 1 0 1 1 2 2 2 2 3 2 2 3 4 5 5 5 4 4 3 3 3 3 3 2 3
9 8 8 6 7 10 2 3 5 4 1 1 1 2 2 2 2 2 1 1 1 2 2 2 2 2 3 3 2 2 4 5 5 4 4 4 4 3 3 3 3 2 2 3
6 7 6 8 7 2 2 3 1 1 1 0 0 1 3 2 2 1 1 1 2 2 2 2 2 2 3 3 2 3 5 5 4 4 4 4 4 4 3 2 2 2 2 2
4 2 3 4 4 3 1 1 1 2 1 1 1 1 2 1 1 0 1 2 2 2 2 2 2 3 3 4 4 3 5 4 4 4 4 4 4 4 3 2 2 2 2 3
4 3 3 4 3 2 1 1 1 1 2 2 2 2 1 2 0 0 1 2 2 3 3 2 2 3 4 4 4 4 4 4 4 4 4 4 4 3 3 3 3 3 4 4
4 5 5 5 3 3 3 1 2 2 1 1 1 2 2 1 0 1 1 2 2 2 3 3 3 3 4 4 5 4 4 3 3 4 4 3 3 3 3 3 4 5 5 7
Wind_Direction
142 111 205 213 208 211 200 219 252 259 256 243 248 265 274 271 255 239 238 227 221 228 232 205 196 188 169 164 169 176 172 179 164 163 173 181 208 213 219 223 206 192 193 189
75 230 229 220 213 225 232 246 262 281 273 249 273 277 274 255 235 219 218 223 220 229 238 209 186 175 183 184 185 189 186 184 185 188 184 190 184 204 215 221 214 203 198 205
196 232 213 197 210 217 238 223 236 261 317 305 310 302 290 284 254 239 228 224 215 211 218 212 192 191 188 192 198 201 198 193 195 182 154 113 90 63 149 225 221 228 207 201
227 245 198 198 220 204 241 225 226 244 293 281 201 287 284 266 283 272 256 244 234 231 215 203 197 197 202 207 207 210 196 187 188 178 174 171 182 203 216 212 218 233 219 209
231 208 197 213 219 195 224 221 221 223 214 279 244 239 281 276 265 264 255 249 245 233 211 202 201 199 198 194 192 203 186 189 183 181 184 188 196 213 219 205 208 228 229 217
236 231 207 215 214 189 183 59 39 40 90 265 224 198 273 236 228 246 250 251 250 231 193 186 167 129 133 118 135 169 171 198 176 177 188 196 202 194 199 215 216 230 242 236
269 254 236 166 148 120 118 105 33 354 334 254 205 206 252 244 226 218 226 232 229 216 187 141 113 132 247 230 183 181 178 217 200 183 203 208 212 201 203 216 218 227 238 242
201 247 215 191 179 180 190 163 168 202 232 274 264 233 253 250 230 225 205 200 221 260 244 237 225 210 224 238 247 211 213 232 226 207 227 220 209 209 222 221 230 229 232 233
193 236 246 209 193 160 167 193 179 145 78 282 264 271 290 243 240 247 215 158 244 280 317 299 297 255 244 246 273 258 257 302 310 273 258 245 218 221 230 229 229 241 238 236
172 223 259 280 62 245 173 153 127 150 174 249 275 255 238 224 229 235 227 216 247 288 325 347 4 21 8 9 359 3 2 314 324 309 271 273 250 238 232 224 230 250 258 230
171 183 263 217 197 192 156 172 172 164 177 185 252 262 225 204 203 196 205 204 204 274 313 352 9 9 10 18 17 4 351 355 352 334 309 289 273 255 238 242 242 239 249 244
179 156 227 237 231 208 192 190 169 177 224 209 226 262 265 180 180 165 163 147 96 63 34 29 18 7 5 2 357 349 337 335 321 323 333 316 310 307 276 271 273 269 254 252
160 156 162 320 277 207 220 212 196 174 160 195 211 254 275 133 149 147 146 136 90 70 44 23 11 357 347 340 333 330 330 321 325 340 346 337 324 305 283 279 286 285 273 268
164 188 197 208 215 185 210 215 194 175 200 225 230 244 260 256 256 259 228 173 111 87 46 3 349 339 338 341 333 327 328 331 336 342 336 321 308 296 289 294 292 286 277 262
157 215 232 249 250 214 223 225 212 214 216 219 238 239 246 235 228 237 237 202 127 83 360 340 336 337 342 344 340 334 329 330 331 328 320 307 311 313 315 309 298 295 288 274
168 198 214 263 240 235 252 238 223 227 227 233 248 257 252 233 193 199 214 204 194 228 285 318 333 340 340 336 332 332 324 317 316 300 297 310 324 326 321 313 306 303 296 291
180 169 184 247 247 296 254 226 211 213 214 207 231 241 188 191 194 210 217 210 218 248 283 300 307 311 317 316 321 318 314 316 315 304 308 313 314 313 311 311 310 296 289 289
178 180 190 208 138 230 241 195 192 206 230 221 233 231 199 203 197 208 208 190 220 260 276 283 292 303 311 314 320 319 327 330 317 314 318 318 312 306 310 307 295 292 288 277
195 181 179 179 222 265 281 232 183 197 247 231 227 229 210 180 125 275 241 190 220 255 263 266 282 291 313 322 324 331 333 336 330 318 314 309 304 300 304 297 293 291 287 283
190 182 183 188 205 234 251 236 226 154 256 231 205 209 203 168 209 242 214 172 231 335 330 330 334 338 336 329 333 342 334 335 323 314 308 305 300 292 288 286 291 296 289 281
175 191 204 210 227 254 261 260 119 176 241 209 190 193 174 189 218 177 132 99 61 7 358 3 358 341 327 328 341 340 331 319 312 313 313 313 309 300 293 295 299 301 298 296
182 181 196 187 212 247 242 138 181 220 346 61 124 152 157 160 112 102 98 59 28 8 359 1 353 333 334 341 347 334 321 317 319 318 316 315 314 310 306 299 301 301 290 287
202 198 191 195 210 234 159 185 235 100 137 8 78 120 139 138 145 114 12 357 358 356 348 348 344 330 337 345 342 317 315 324 323 320 314 313 315 312 310 300 298 299 286 277
241 220 194 230 250 241 227 314 18 51 57 26 44 85 121 143 159 135 342 342 344 345 346 346 343 331 329 335 336 325 320 325 322 312 311 314 316 315 313 306 295 286 278 276
229 192 209 236 254 271 260 208 171 98 73 61 46 43 73 116 123 293 306 318 322 326 333 336 322 312 314 323 324 327 326 323 314 308 308 311 307 304 306 302 286 284 271 268
213 198 201 229 221 216 230 194 151 148 148 125 95 39 29 61 75 335 312 316 319 322 332 329 323 314 311 314 312 319 321 316 304 304 306 304 303 302 303 305 309 298 297 301